Tracking 19800 objects as of 23-Jul-2019
HD Live streaming from Space Station
objects crossing your sky now

SHIJIAN-16 (SJ-16)

Track SHIJIAN-16 (SJ-16) now!
10-day predictions
SHIJIAN-16 (SJ-16) is classified as:


NORAD ID: 39358
Int'l Code: 2013-057A
Perigee: 605.1 km
Apogee: 632.6 km
Inclination: 75.0 °
Period: 96.9 minutes
Semi major axis: 6989 km
RCS: Unknown
Launch date: October 25, 2013
Source: People's Republic of China (PRC)
Launch site: Jiuquan Satellite Launch Center, China (JSC)

SHIJIAN-16 will be used mainly for conducting space environment exploration and technological experiments.
aabbcc
Your satellite tracking list
Your tracking list is empty




NASA's NSSDC Master Catalog

Two Line Element Set (TLE):
1 39358U 13057A   19204.16946048  .00000102  00000-0  14964-4 0  9999
2 39358  74.9749  54.5619 0019671 189.5065 170.5761 14.85584011311535
Source of the keplerian elements: AFSPC